Location: Killam
(52.7910°N, 111.8608°W)
Time: 17:26:10
(UTC+00:00)

Vanguard 2 Rocket - Pass Details

Date: 20 February 2026
Orbit: 553 x 3286 km, 32.9° (Epoch: 11 March)

Event Time Altitude Azimuth Distance (km) Brightness Sun altitude
Rises 17:32:44 0° 202° (SSW) 7,146 11.9 20.8°
Reaches altitude 10° 17:39:20 10° 189° (S) 6,223 12.0 21.3°
Maximum altitude 17:52:02 22° 149° (SSE) 5,075 15.1 22.3°
Drops below altitude 10° 18:03:08 10° 108° (ESE) 5,405 11.6 23.1°
Sets 18:08:09 0° 95° (E) 6,014 11.5 23.4°
